Regional Weather Roundup
Issued by NWS

Home | Current Version | Previous Version | Text Only | Print | Product List | Glossary On
Versions: 1 2 3 4 5 6 7 8 9 10 11 12 13 14 15 16 17 18 19 20 21 22 23 24 25 26 27 28 29 30 31 32 33 34 35 36 37 38 39 40 41 42 43 44 45 46 47 48 49 50
000
ASUS46 KLOX 271013
RWRCA

SOUTHERN CALIFORNIA WEATHER ROUNDUP
NATIONAL WEATHER SERVICE OXNARD CALIFORNIA
300 AM PDT WED MAY 27 2015

NOTE: "FAIR" INDICATES FEW OR NO CLOUDS BELOW 12,000 FEET WITH NO
SIGNIFICANT WEATHER AND/OR OBSTRUCTIONS TO VISIBILITY.

  -  STATIONS PRECEEDED BY AN ASTERISK (*) ARE NOT NWS OR FAA
     STATIONS AND ARE NOT SUBJECT TO NWS AND FAA QUALITY CONTROL.

CAZ041-042-087-271100-
LA AND ORANGE COUNTY COASTAL AREAS


CITY           SKY/WX    TMP DP  RH WIND       PRES   REMARKS
L.A. DOWNTOWN  CLOUDY    60  54  80 VRB3      29.99S
L.A. AIRPORT   CLOUDY    58  54  86 SW7       30.00S
LONG BEACH     CLOUDY    62  54  74 NW6       29.98F

CITY           SKY/WX    TMP DP  RH WIND       PRES   REMARKS
AVALON           N/A     61 N/A N/A MISG        N/A
FULLERTON      CLOUDY    63  53  70 W3        29.97F
HAWTHORNE      CLOUDY    61  54  77 SW5       29.99S
*LOS ALAMITOS  CLOUDY    62  55  79 W5        29.98S
*REDONDO BEACH   N/A     59  54  83 CALM      29.99F
SANTA ANA      CLOUDY    62  55  77 CALM      29.98S
STA MONICA APT CLOUDY    59  54  83 W6        29.99F
*STA MON PIER    N/A     59  56  89 W6        29.99S
*UCLA            N/A     59  52  77 W1        29.96F

$$

CAZ547-548-048-271100-
LA COUNTY VALLEYS AND INLAND EMPIRE


CITY           SKY/WX    TMP DP  RH WIND       PRES   REMARKS
BURBANK        CLOUDY    58  52  80 CALM      29.99S
VAN NUYS       CLOUDY    57  52  83 S3        29.99S

CITY           SKY/WX    TMP DP  RH WIND       PRES   REMARKS
CORONA AIRPORT PTSUNNY   60  54  80 CALM      29.99S
*CHATSWORTH      N/A     56  52  84 E2        29.99S
CHINO          CLOUDY    61  54  77 W6        29.99F
*NORTHRIDGE      N/A     55  52  88 SE2         N/A
ONTARIO        CLOUDY    59  53  80 NW3       29.97F HAZE
*PASADENA        N/A     57  55  94 CALM        N/A
RIVERSIDE      CLOUDY    60  54  80 VRB3      29.98F
SAN BERNARDINO NOT AVBL
*WHITEMAN AP   NOT AVBL
*WOODLAND HILL   N/A     57  52  82 E2          N/A

$$

CAZ054-055-271100-
LA AND SAN BERNARDINO COUNTY MOUNTAINS


CITY           SKY/WX    TMP DP  RH WIND       PRES   REMARKS
*BIG BEAR AIRP PTSUNNY   37  27  65 CALM      30.14S
SANDBERG       CLEAR     56  45  66 NW13      30.04S

$$

CAZ028-029-059-060-099-271100-
ANTELOPE VALLEY AND SURROUNDING AREAS


CITY           SKY/WX    TMP DP  RH WIND       PRES   REMARKS
LANCASTER      PTCLDY    62  45  53 SW10      29.94S
PALMDALE       PTCLDY    62  40  44 SW14      29.96R

CITY           SKY/WX    TMP DP  RH WIND       PRES   REMARKS
29 PALMS       PTCLDY    66  38  35 N7        29.98R
BARSTOW/DAGGET PTCLDY    67  30  25 W10       29.91S
BISHOP         CLEAR     55  43  63 N7        29.99R
CHINA LAKE     MOCLDY    68  44  42 SW7       29.89S
EDWARDS AFB    MOCLDY    61  36  40 SW10      29.91F
MOJAVE         FAIR      66  46  48 NW6       29.94S
NEEDLES        CLEAR     80  39  23 CALM      29.84R
VICTORVILLE    PTCLDY    57  39  51 S7        29.97S

$$

CAZ039-040-271100-
VENTURA AND SANTA BARBARA COUNTY COAST


CITY           SKY/WX    TMP DP  RH WIND       PRES   REMARKS
CAMARILLO      MOCLDY    57  52  83 CALM      29.99S
OXNARD AIRPORT CLOUDY    59  53  80 W7        29.99S
*POINT MUGU    CLOUDY    59  54  83 CALM      30.00S
SBA APT/GOLETA PTCLDY    58  54  86 E9        29.97F
*SANTA BARBARA   N/A     58  52  80 SW1       30.05F
*VENTURA         N/A     57  52  84 CALM      29.59S

$$

CAZ044-045-271100-
VENTURA COUNTY VALLEYS


CITY           SKY/WX    TMP DP  RH WIND       PRES   REMARKS
*SIMI VALLEY     N/A     55  52  89 CALM      29.95F
*OJAI            N/A     49  47  90 CALM      29.94S
*FILLMORE        N/A     53  49  85 CALM      29.89S

$$

CAZ053-271100-
VENTURA COUNTY MOUNTAINS


CITY           SKY/WX    TMP DP  RH WIND       PRES   REMARKS

$$

CAZ034-035-036-271100-
CENTRAL COAST AND SANTA YNEZ VALLEY


CITY           SKY/WX    TMP DP  RH WIND       PRES   REMARKS
SAN LUIS OBISP CLOUDY    55  49  80 NW7       30.00F
SANTA MARIA    CLOUDY    53  51  93 CALM      30.01F

CITY           SKY/WX    TMP DP  RH WIND       PRES   REMARKS
*CAL POLY SLO    N/A     55  52  88 CALM        N/A
*LOMPOC        CLOUDY    52  43  71 CALM      30.02F
*PISMO BEACH     N/A     54  49  85 CALM      30.01F
*SANTA YNEZ    CLOUDY    52  46  82 CALM      30.00F

$$

CAZ037-038-051-271100-
SAN LUIS OBISPO COUNTY INTERIOR AND CUYAMA VALLEY


CITY           SKY/WX    TMP DP  RH WIND       PRES   REMARKS
*CUYAMA          N/A     51  46  80 CALM      29.94S
PASO ROBLES    PTCLDY    52  48  86 NW8       30.01R

$$

CAZ032-033-061-271100-
SOUTHERN DESERTS


CITY           SKY/WX    TMP DP  RH WIND       PRES   REMARKS
BLYTHE         PTCLDY    73  45  36 S7        29.82S
IMPERIAL       PTCLDY    72  55  55 SE7       29.80S
PALM SPRINGS   MOCLDY    69  53  56 CALM      29.87R
THERMAL        MOCLDY    73  52  47 NW12      29.81S

$$

ELSEWHERE ACROSS THE WESTERN UNITED STATES AND MEXICO


CITY           SKY/WX    TMP DP  RH WIND       PRES   REMARKS
DENVER, CO     PTCLDY    50  44  80 W14       30.06F
GRAND CANYON,  MOCLDY    39  35  86 CALM      30.17S
HONOLULU, HI   MOCLDY    73  63  68 N3        29.96F
KAHULUI, MAUI  CLOUDY    73  64  73 NE5       29.97F
LAKE TAHOE, CA CLEAR     41  36  82 S3        30.13S
LAS VEGAS, NV  CLOUDY    74  34  23 SW8       29.85R
MAMMOTH LAKES, FAIR      41  36  81 CALM      30.15S
MEXICO CITY, M PTCLDY    59  50  72 N5        30.33S
PHOENIX, AZ    MOCLDY    79  37  22 N7        29.86S
PORTLAND, OR   CLEAR     57  52  83 CALM      30.05R
RENO, NV       CLEAR     54  39  57 CALM      30.06R
SALT LAKE CITY PTCLDY    53  47  79 SE5       30.05S
SAN DIEGO, CA  CLOUDY    62  53  72 NW6       29.99S
SAN FRANCISCO, CLOUDY    56  49  77 SW7       30.01S
SAN JOSE, CA   CLOUDY    58  49  72 NE3       30.00S
SEATTLE, WA    PTCLDY    55  51  86 S5        30.05F
TIJUANA, MEX   CLOUDY    59  52  77 W7        30.00F

$$

STATION/POSITION TIME  TEMP    WIND        PRES    VSBY  WAVE
                       AIR SEA DIR/SP/G                  HT/PER
                 (UTC) (F)     (DEG/KT/KT) (MB)    (MI)  (FT/S)
POINT ARGUELLO B NOT AVBL
WEST SANTA BARBA 0950   56 56  330/ 16/ 19 1015.0F         4/16
POINT CONCEPTION NOT AVBL
EAST SANTA BARBA 0900   57 58  250/  8/ 10 1015.3F
SANTA MONICA BAY 0950   59 63  350/  2/  2 1015.6F         4/14


USA.gov is the U.S. government's official web portal to all federal, state and local government web resources and services.